sat.trackr.live / text

‹ back to catalog

STARLINK-31044

NORAD 58589 · 2023-200A

PAYLOAD ACTIVE UNKNOWN

§ Identity

Operator
Country
US
Launch date
2023-12-19
Launch site
AFETR
Launch vehicle
Mass (kg)
RCS (m²)

Purposes: comms

External: N2YO · Heavens-Above · Gunter

§ Orbital elements

Epoch: 2026-09-20T09:10:46.086240Z

Period
94.27 min
Inclination
43.0005°
Eccentricity
0.0001108
Mean motion
15.27576600 rev/d
Perigee alt
482.3 km
Apogee alt
483.8 km
Semi-major
6,861.2 km
B*
-5.1801e-6
RAAN
149.5640°
Arg perigee
258.9180°
Mean anomaly
101.1548°
Rev number
15,338

§ Raw data

STARLINK-310441 58589U 23200A   26263.38247785 -.00000404  00000+0 -51801-5 0  99942 58589  43.0005 149.5640 0001108 258.9180 101.1548 15.27576600153380

JSON: /api/v1/satellites/58589 · /tle

For live sub-satellite position, see the globe view (requires WebGL).

§ Visibility from observer

Set your observer location to see the next 7 days of passes ≥ 10°. The values pass through the URL so the page stays shareable.

No JS? Fill the form by hand. The geolocation button needs JavaScript.